Vorticity
12 17 17 14 12 12 18 9 11 11 8 7 8 11 9 9 8 7 5 12 -1 6
13 13 10 6 13 12 15 13 11 11 13 9 6 8 9 8 7 7 9 7 5 7
33 19 4 34 1 3 7 21 16 10 10 13 10 9 10 10 9 7 7 3 5 0
27 44 8 3 10 -12 19 -9 22 8 11 8 13 12 10 8 10 12 10 7 7 8
6 47 26 10 -37 14 32 -8 20 8 10 14 12 3 5 5 7 8 10 11 8 8
-3 31 -3 11 20 5 -32 47 15 19 1 7 2 7 10 12 3 7 10 9 8 7
25 4 37 18 -5 7 28 -1 -14 -5 34 14 13 11 10 14 19 1 2 11 11 10
25 34 3 -20 2 11 -13 -20 17 15 1 7 11 9 8 11 21 20 15 4 -5 -3
27 3 66 16 91 28 32 57 9 7 3 -4 4 9 7 7 5 8 20 21 19 18
8 22 5 5 37 18 17 10 0 -9 2 10 6 -1 5 8 15 11 11 12 13 11
-4 4 -20 2 5 -1 28 35 27 31 13 15 13 12 14 13 12 12 14 13 10 10
18 9 3 7 22 12 9 6 14 11 -2 5 24 6 13 17 9 10 10 6 8 11
28 28 19 8 5 14 13 21 14 1 3 25 30 4 -1 13 10 13 12 11 10 10
8 21 19 18 14 3 11 8 14 15 14 14 9 -5 5 12 14 10 9 9 7 7
Height
5550 5561 5571 5582 5591 5600 5609 5618 5624 5633 5641 5648 5656 5663 5671 5678 5685 5691 5697 5702 5708 5713
5534 5546 5556 5566 5575 5583 5592 5600 5609 5617 5626 5634 5642 5650 5657 5665 5673 5679 5684 5691 5695 5701
5522 5532 5545 5552 5561 5568 5576 5586 5596 5605 5614 5622 5629 5637 5645 5653 5660 5667 5673 5679 5684 5692
5512 5521 5532 5540 5547 5555 5564 5573 5583 5592 5601 5609 5617 5625 5633 5641 5648 5655 5660 5666 5673 5678
5504 5510 5521 5529 5535 5542 5555 5557 5569 5581 5590 5597 5604 5612 5619 5628 5635 5642 5648 5654 5660 5666
5495 5503 5511 5520 5530 5539 5539 5546 5557 5567 5578 5586 5593 5601 5608 5616 5622 5629 5635 5641 5647 5653
5484 5491 5503 5512 5519 5526 5535 5537 5551 5558 5566 5574 5582 5589 5596 5604 5611 5616 5622 5629 5634 5640
5478 5483 5493 5502 5509 5517 5523 5530 5540 5549 5557 5563 5568 5578 5585 5592 5599 5606 5612 5617 5622 5628
5472 5476 5480 5493 5495 5506 5514 5524 5532 5539 5546 5554 5561 5568 5575 5581 5588 5594 5600 5606 5611 5616
5465 5468 5475 5479 5488 5497 5504 5514 5521 5529 5537 5544 5551 5558 5565 5571 5577 5583 5589 5594 5599 5604
5455 5460 5466 5474 5482 5489 5493 5501 5510 5518 5526 5534 5540 5547 5554 5560 5566 5572 5577 5582 5587 5592
5447 5453 5461 5468 5476 5483 5487 5493 5502 5507 5515 5524 5531 5537 5544 5550 5556 5562 5566 5571 5575 5580
5440 5446 5452 5459 5467 5473 5480 5485 5491 5498 5507 5514 5521 5528 5534 5540 5546 5551 5557 5561 5564 5568
5433 5438 5444 5450 5458 5465 5473 5478 5483 5491 5498 5506 5512 5518 5525 5531 5535 5541 5546 5550 5554 5558